owner,sensor,date,latitude,longitude,vertical_datum,direction_of_sea_water_velocity,sea_water_speed,upward_sea_water_velocity,qcFlag 
TABS,ioos:station:wmo:42044:1,2016-01-29T06:00:00Z,26.1914,-97.0507,2.0,139.0220448,18.64991421,-99999.0,'11111222,11111222,99999999' 
TABS,ioos:station:wmo:42044:1,2016-01-29T06:30:00Z,26.1914,-97.0507,2.0,131.1918555,17.88686669,-99999.0,'11111222,11111222,99999999' 
TABS,ioos:station:wmo:42044:1,2016-01-29T07:00:00Z,26.1914,-97.0507,2.0,123.1177054,19.43766447,-99999.0,'11111222,11111222,99999999' 
TABS,ioos:station:wmo:42044:1,2016-01-29T07:30:00Z,26.1914,-97.0507,2.0,117.1174978,19.94218143,-99999.0,'11111222,11111222,99999999' 
TABS,ioos:station:wmo:42044:1,2016-01-29T08:00:00Z,26.1914,-97.0507,2.0,116.6572737,19.43592807,-99999.0,'11111222,11111222,99999999' 
TABS,ioos:station:wmo:42044:1,2016-01-29T08:30:00Z,26.1914,-97.0507,2.0,119.2359534,17.17824787,-99999.0,'11111222,11111222,99999999' 
TABS,ioos:station:wmo:42044:1,2016-01-29T09:00:00Z,26.1914,-97.0507,2.0,114.4463785,19.11355802,-99999.0,'11111222,11111222,99999999' 
TABS,ioos:station:wmo:42044:1,2016-01-29T09:30:00Z,26.1914,-97.0507,2.0,104.5414863,20.35195568,-99999.0,'11111222,11111222,99999999' 
TABS,ioos:station:wmo:42044:1,2016-01-29T10:00:00Z,26.1914,-97.0507,2.0,92.20357754,22.36653974,-99999.0,'11111222,11111222,99999999' 
TABS,ioos:station:wmo:42044:1,2016-01-29T10:30:00Z,26.1914,-97.0507,2.0,96.4531353,24.64615589,-99999.0,'11111222,11111222,99999999' 
TABS,ioos:station:wmo:42044:1,2016-01-29T11:00:00Z,26.1914,-97.0507,2.0,96.16825924,24.29062782,-99999.0,'11111222,11111222,99999999' 
TABS,ioos:station:wmo:42044:1,2016-01-29T11:30:00Z,26.1914,-97.0507,2.0,96.08444109,24.24658739,-99999.0,'11111222,11111222,99999999' 
TABS,ioos:station:wmo:42044:1,2016-01-29T12:00:00Z,26.1914,-97.0507,2.0,89.72553194,25.05028742,-99999.0,'11111222,11111222,99999999' 
TABS,ioos:station:wmo:42044:1,2016-01-29T12:30:00Z,26.1914,-97.0507,2.0,88.26566372,25.44165482,-99999.0,'11111222,11111222,99999999' 
TABS,ioos:station:wmo:42044:1,2016-01-29T13:00:00Z,26.1914,-97.0507,2.0,90.17173615,26.69011989,-99999.0,'11111222,11111222,99999999' 
TABS,ioos:station:wmo:42044:1,2016-01-29T13:30:00Z,26.1914,-97.0507,2.0,84.1884511,25.97349611,-99999.0,'11111222,11111222,99999999' 
TABS,ioos:station:wmo:42044:1,2016-01-29T14:00:00Z,26.1914,-97.0507,2.0,83.73571779,25.84431272,-99999.0,'11111222,11111222,99999999' 
TABS,ioos:station:wmo:42044:1,2016-01-29T14:30:00Z,26.1914,-97.0507,2.0,88.25937952,24.69139324,-99999.0,'11111222,11111222,99999999' 
TABS,ioos:station:wmo:42044:1,2016-01-29T15:00:00Z,26.1914,-97.0507,2.0,88.48161676,23.39821574,-99999.0,'11111222,11111222,99999999' 
TABS,ioos:station:wmo:42044:1,2016-01-29T15:30:00Z,26.1914,-97.0507,2.0,88.58649818,23.1070314,-99999.0,'11111222,11111222,99999999' 
TABS,ioos:station:wmo:42044:1,2016-01-29T16:00:00Z,26.1914,-97.0507,2.0,86.49098162,23.3638032,-99999.0,'11111222,11111222,99999999' 
TABS,ioos:station:wmo:42044:1,2016-01-29T16:30:00Z,26.1914,-97.0507,2.0,91.0320261,23.87387275,-99999.0,'11111222,11111222,99999999' 
TABS,ioos:station:wmo:42044:1,2016-01-29T17:00:00Z,26.1914,-97.0507,2.0,84.63084274,24.04550062,-99999.0,'11111222,11111222,99999999' 
TABS,ioos:station:wmo:42044:1,2016-01-29T17:30:00Z,26.1914,-97.0507,2.0,88.72697296,21.60533268,-99999.0,'11111222,11111222,99999999' 
TABS,ioos:station:wmo:42044:1,2016-01-29T18:00:00Z,26.1914,-97.0507,2.0,88.01098867,21.0326722,-99999.0,'11111222,11111222,99999999' 
TABS,ioos:station:wmo:42044:1,2016-01-29T18:30:00Z,26.1914,-97.0507,2.0,84.81845346,20.15235222,-99999.0,'11111222,11111222,99999999' 
TABS,ioos:station:wmo:42044:1,2016-01-29T19:00:00Z,26.1914,-97.0507,2.0,82.02684416,19.10468267,-99999.0,'11111222,11111222,99999999' 
TABS,ioos:station:wmo:42044:1,2016-01-29T19:30:00Z,26.1914,-97.0507,2.0,83.70606653,16.41896464,-99999.0,'11111222,11111222,99999999' 
TABS,ioos:station:wmo:42044:1,2016-01-29T20:00:00Z,26.1914,-97.0507,2.0,90.44151076,16.87050088,-99999.0,'11111222,11111222,99999999' 
TABS,ioos:station:wmo:42044:1,2016-01-29T20:30:00Z,26.1914,-97.0507,2.0,84.41631665,15.72461128,-99999.0,'11111222,11111222,99999999' 
TABS,ioos:station:wmo:42044:1,2016-01-29T21:00:00Z,26.1914,-97.0507,2.0,81.04241584,15.86347377,-99999.0,'11111222,11111222,99999999' 
TABS,ioos:station:wmo:42044:1,2016-01-29T21:30:00Z,26.1914,-97.0507,2.0,70.05867806,14.07383743,-99999.0,'11111222,11111222,99999999' 
TABS,ioos:station:wmo:42044:1,2016-01-29T22:00:00Z,26.1914,-97.0507,2.0,69.62574524,14.39028144,-99999.0,'11111222,11111222,99999999' 
TABS,ioos:station:wmo:42044:1,2016-01-29T22:30:00Z,26.1914,-97.0507,2.0,81.55294048,12.52588121,-99999.0,'11111222,11111222,99999999' 
TABS,ioos:station:wmo:42044:1,2016-01-29T23:00:00Z,26.1914,-97.0507,2.0,75.16257665,13.35531729,-99999.0,'11111222,11111222,99999999' 
TABS,ioos:station:wmo:42044:1,2016-01-29T23:30:00Z,26.1914,-97.0507,2.0,62.73792634,13.60077204,-99999.0,'11111222,11111222,99999999' 
TABS,ioos:station:wmo:42044:1,2016-01-30T00:00:00Z,26.1914,-97.0507,2.0,65.30538035,13.42803411,-99999.0,'11111222,11111222,99999999' 
TABS,ioos:station:wmo:42044:1,2016-01-30T00:30:00Z,26.1914,-97.0507,2.0,61.06087052,14.46636098,-99999.0,'11111222,11111222,99999999' 
TABS,ioos:station:wmo:42044:1,2016-01-30T01:00:00Z,26.1914,-97.0507,2.0,58.78587511,14.12475841,-99999.0,'11111222,11111222,99999999' 
TABS,ioos:station:wmo:42044:1,2016-01-30T01:30:00Z,26.1914,-97.0507,2.0,59.66404492,15.02760793,-99999.0,'11111222,11111222,99999999' 
TABS,ioos:station:wmo:42044:1,2016-01-30T02:00:00Z,26.1914,-97.0507,2.0,57.25950778,12.88745514,-99999.0,'11111222,11111222,99999999' 
TABS,ioos:station:wmo:42044:1,2016-01-30T02:30:00Z,26.1914,-97.0507,2.0,47.55413086,13.64657466,-99999.0,'11111222,11111222,99999999' 
TABS,ioos:station:wmo:42044:1,2016-01-30T03:00:00Z,26.1914,-97.0507,2.0,48.86794146,16.03835715,-99999.0,'11111222,11111222,99999999' 
TABS,ioos:station:wmo:42044:1,2016-01-30T03:30:00Z,26.1914,-97.0507,2.0,36.32121434,14.19865134,-99999.0,'11111222,11111222,99999999' 
TABS,ioos:station:wmo:42044:1,2016-01-30T04:00:00Z,26.1914,-97.0507,2.0,43.84536617,12.63149239,-99999.0,'11111222,11111222,99999999' 
TABS,ioos:station:wmo:42044:1,2016-01-30T04:30:00Z,26.1914,-97.0507,2.0,28.4415509,13.79499184,-99999.0,'11111222,11111222,99999999' 
TABS,ioos:station:wmo:42044:1,2016-01-30T05:00:00Z,26.1914,-97.0507,2.0,21.01288186,16.59345052,-99999.0,'11111222,11111222,99999999' 
TABS,ioos:station:wmo:42044:1,2016-01-30T05:30:00Z,26.1914,-97.0507,2.0,28.76002498,17.74951267,-99999.0,'11111222,11111222,99999999' 
TABS,ioos:station:wmo:42044:1,2016-01-30T06:00:00Z,26.1914,-97.0507,2.0,20.92640111,18.11483646,-99999.0,'11111222,11111222,99999999' 
TABS,ioos:station:wmo:42044:1,2016-01-30T06:30:00Z,26.1914,-97.0507,2.0,21.77250848,18.30584879,-99999.0,'11111222,11111222,99999999' 
TABS,ioos:station:wmo:42044:1,2016-01-30T07:00:00Z,26.1914,-97.0507,2.0,14.32035651,18.59786009,-99999.0,'11111222,11111222,99999999' 
TABS,ioos:station:wmo:42044:1,2016-01-30T07:30:00Z,26.1914,-97.0507,2.0,21.26789616,18.93988912,-99999.0,'11111222,11111222,99999999' 
TABS,ioos:station:wmo:42044:1,2016-01-30T08:00:00Z,26.1914,-97.0507,2.0,23.06387769,18.96595371,-99999.0,'11111222,11111222,99999999' 
TABS,ioos:station:wmo:42044:1,2016-01-30T08:30:00Z,26.1914,-97.0507,2.0,12.9061331,15.98378241,-99999.0,'11111222,11111222,99999999' 
TABS,ioos:station:wmo:42044:1,2016-01-30T09:00:00Z,26.1914,-97.0507,2.0,24.39707869,17.14055133,-99999.0,'11111222,11111222,99999999' 
TABS,ioos:station:wmo:42044:1,2016-01-30T09:30:00Z,26.1914,-97.0507,2.0,15.01994072,19.21650332,-99999.0,'11111222,11111222,99999999' 
TABS,ioos:station:wmo:42044:1,2016-01-30T10:00:00Z,26.1914,-97.0507,2.0,17.15227519,21.32858411,-99999.0,'11111222,11111222,99999999' 
TABS,ioos:station:wmo:42044:1,2016-01-30T10:30:00Z,26.1914,-97.0507,2.0,17.11656636,21.57560891,-99999.0,'11111222,11111222,99999999' 
TABS,ioos:station:wmo:42044:1,2016-01-30T11:00:00Z,26.1914,-97.0507,2.0,23.07656727,22.78303097,-99999.0,'11111222,11111222,99999999' 
TABS,ioos:station:wmo:42044:1,2016-01-30T11:30:00Z,26.1914,-97.0507,2.0,25.01704544,22.51200569,-99999.0,'11111222,11111222,99999999' 
TABS,ioos:station:wmo:42044:1,2016-01-30T12:00:00Z,26.1914,-97.0507,2.0,32.20528555,20.97748555,-99999.0,'11111222,11111222,99999999' 
TABS,ioos:station:wmo:42044:1,2016-01-30T12:30:00Z,26.1914,-97.0507,2.0,23.1537166,21.71940377,-99999.0,'11111222,11111222,99999999' 
TABS,ioos:station:wmo:42044:1,2016-01-30T13:00:00Z,26.1914,-97.0507,2.0,30.36068613,17.43036718,-99999.0,'11111222,11111222,99999999' 
TABS,ioos:station:wmo:42044:1,2016-01-30T13:30:00Z,26.1914,-97.0507,2.0,30.75821594,17.67647306,-99999.0,'11111222,11111222,99999999' 
TABS,ioos:station:wmo:42044:1,2016-01-30T14:00:00Z,26.1914,-97.0507,2.0,32.64433131,17.01826372,-99999.0,'11111222,11111222,99999999' 
TABS,ioos:station:wmo:42044:1,2016-01-30T14:30:00Z,26.1914,-97.0507,2.0,38.52924628,15.74860311,-99999.0,'11111222,11111222,99999999' 
TABS,ioos:station:wmo:42044:1,2016-01-30T15:00:00Z,26.1914,-97.0507,2.0,34.1948385,13.540757,-99999.0,'11111222,11111222,99999999' 
TABS,ioos:station:wmo:42044:1,2016-01-30T15:30:00Z,26.1914,-97.0507,2.0,36.07789646,15.04543785,-99999.0,'11111222,11111222,99999999' 
TABS,ioos:station:wmo:42044:1,2016-01-30T16:00:00Z,26.1914,-97.0507,2.0,36.4069032,17.32056581,-99999.0,'11111222,11111222,99999999' 
TABS,ioos:station:wmo:42044:1,2016-01-30T16:30:00Z,26.1914,-97.0507,2.0,35.11517014,14.49879995,-99999.0,'11111222,11111222,99999999' 
TABS,ioos:station:wmo:42044:1,2016-01-30T17:00:00Z,26.1914,-97.0507,2.0,36.83482801,16.28000307,-99999.0,'11111222,11111222,99999999' 
TABS,ioos:station:wmo:42044:1,2016-01-30T17:30:00Z,26.1914,-97.0507,2.0,33.87181821,14.87436049,-99999.0,'11111222,11111222,99999999' 
TABS,ioos:station:wmo:42044:1,2016-01-30T18:00:00Z,26.1914,-97.0507,2.0,42.01935538,11.96629433,-99999.0,'11111222,11111222,99999999' 
TABS,ioos:station:wmo:42044:1,2016-01-30T18:30:00Z,26.1914,-97.0507,2.0,45.03374917,12.04203056,-99999.0,'11111222,11111222,99999999' 
TABS,ioos:station:wmo:42044:1,2016-01-30T19:00:00Z,26.1914,-97.0507,2.0,45.55863924,13.78216601,-99999.0,'11111222,11111222,99999999' 
TABS,ioos:station:wmo:42044:1,2016-01-30T19:30:00Z,26.1914,-97.0507,2.0,44.86778296,15.30890264,-99999.0,'11111222,11111222,99999999' 
TABS,ioos:station:wmo:42044:1,2016-01-30T20:00:00Z,26.1914,-97.0507,2.0,40.84480849,18.63883312,-99999.0,'11111222,11111222,99999999' 
TABS,ioos:station:wmo:42044:1,2016-01-30T20:30:00Z,26.1914,-97.0507,2.0,55.68029273,14.38424485,-99999.0,'11111222,11111222,99999999' 
TABS,ioos:station:wmo:42044:1,2016-01-30T21:00:00Z,26.1914,-97.0507,2.0,48.83987743,14.67712847,-99999.0,'11111222,11111222,99999999' 
TABS,ioos:station:wmo:42044:1,2016-01-30T21:30:00Z,26.1914,-97.0507,2.0,46.65035972,15.22325195,-99999.0,'11111222,11111222,99999999' 
TABS,ioos:station:wmo:42044:1,2016-01-30T22:00:00Z,26.1914,-97.0507,2.0,46.98203855,15.94772711,-99999.0,'11111222,11111222,99999999' 
TABS,ioos:station:wmo:42044:1,2016-01-30T22:30:00Z,26.1914,-97.0507,2.0,43.34609263,15.92360826,-99999.0,'11111222,11111222,99999999' 
TABS,ioos:station:wmo:42044:1,2016-01-30T23:00:00Z,26.1914,-97.0507,2.0,42.33968491,14.62458888,-99999.0,'11111222,11111222,99999999' 
TABS,ioos:station:wmo:42044:1,2016-01-30T23:30:00Z,26.1914,-97.0507,2.0,51.89044829,12.84900774,-99999.0,'11111222,11111222,99999999' 
TABS,ioos:station:wmo:42044:1,2016-01-31T00:00:00Z,26.1914,-97.0507,2.0,33.76420861,12.88292281,-99999.0,'11111222,11111222,99999999' 
TABS,ioos:station:wmo:42044:1,2016-01-31T00:30:00Z,26.1914,-97.0507,2.0,30.06872297,14.27042396,-99999.0,'11111222,11111222,99999999' 
TABS,ioos:station:wmo:42044:1,2016-01-31T01:00:00Z,26.1914,-97.0507,2.0,23.42068593,12.8812577,-99999.0,'11111222,11111222,99999999' 
TABS,ioos:station:wmo:42044:1,2016-01-31T01:30:00Z,26.1914,-97.0507,2.0,30.55445197,10.79954166,-99999.0,'11111222,11111222,99999999' 
TABS,ioos:station:wmo:42044:1,2016-01-31T02:00:00Z,26.1914,-97.0507,2.0,32.34757832,12.07359102,-99999.0,'11111222,11111222,99999999' 
TABS,ioos:station:wmo:42044:1,2016-01-31T02:30:00Z,26.1914,-97.0507,2.0,16.2918929,10.90800165,-99999.0,'11111222,11111222,99999999' 
TABS,ioos:station:wmo:42044:1,2016-01-31T03:00:00Z,26.1914,-97.0507,2.0,21.3596653,12.51995208,-99999.0,'11111222,11111222,99999999' 
TABS,ioos:station:wmo:42044:1,2016-01-31T03:30:00Z,26.1914,-97.0507,2.0,15.42366517,14.32592754,-99999.0,'11111222,11111222,99999999' 
TABS,ioos:station:wmo:42044:1,2016-01-31T04:00:00Z,26.1914,-97.0507,2.0,13.33165537,14.78851581,-99999.0,'11111222,11111222,99999999' 
TABS,ioos:station:wmo:42044:1,2016-01-31T04:30:00Z,26.1914,-97.0507,2.0,4.02134496,15.82896712,-99999.0,'11111222,11111222,99999999' 
TABS,ioos:station:wmo:42044:1,2016-01-31T05:00:00Z,26.1914,-97.0507,2.0,10.21579764,15.50580859,-99999.0,'11111222,11111222,99999999' 
TABS,ioos:station:wmo:42044:1,2016-01-31T05:30:00Z,26.1914,-97.0507,2.0,5.25183132,18.13612969,-99999.0,'11111222,11111222,99999999' 
TABS,ioos:station:wmo:42044:1,2016-01-31T06:00:00Z,26.1914,-97.0507,2.0,3.905900463,14.9747788,-99999.0,'11111222,11111222,99999999' 
TABS,ioos:station:wmo:42044:1,2016-01-31T06:30:00Z,26.1914,-97.0507,2.0,9.121727221,15.20224326,-99999.0,'11111222,11111222,99999999' 
TABS,ioos:station:wmo:42044:1,2016-01-31T07:00:00Z,26.1914,-97.0507,2.0,5.619278348,18.68980738,-99999.0,'11111222,11111222,99999999' 
TABS,ioos:station:wmo:42044:1,2016-01-31T07:30:00Z,26.1914,-97.0507,2.0,2.403613705,15.02321537,-99999.0,'11111222,11111222,99999999' 
TABS,ioos:station:wmo:42044:1,2016-01-31T08:00:00Z,26.1914,-97.0507,2.0,354.0107767,18.40044565,-99999.0,'11111222,11111222,99999999' 
TABS,ioos:station:wmo:42044:1,2016-01-31T08:30:00Z,26.1914,-97.0507,2.0,355.2393035,17.47027762,-99999.0,'11111222,11111222,99999999' 
TABS,ioos:station:wmo:42044:1,2016-01-31T09:00:00Z,26.1914,-97.0507,2.0,347.9096621,19.14467289,-99999.0,'11111222,11111222,99999999' 
TABS,ioos:station:wmo:42044:1,2016-01-31T09:30:00Z,26.1914,-97.0507,2.0,355.9418583,22.46633481,-99999.0,'11111222,11111222,99999999' 
TABS,ioos:station:wmo:42044:1,2016-01-31T10:00:00Z,26.1914,-97.0507,2.0,352.5272871,20.22175561,-99999.0,'11111222,11111222,99999999' 
TABS,ioos:station:wmo:42044:1,2016-01-31T10:30:00Z,26.1914,-97.0507,2.0,357.4790839,23.64288476,-99999.0,'11111222,11111222,99999999' 
TABS,ioos:station:wmo:42044:1,2016-01-31T11:00:00Z,26.1914,-97.0507,2.0,358.3428916,25.24055863,-99999.0,'11111222,11111222,99999999' 
TABS,ioos:station:wmo:42044:1,2016-01-31T11:30:00Z,26.1914,-97.0507,2.0,1.874015351,25.38357343,-99999.0,'11111222,11111222,99999999' 
TABS,ioos:station:wmo:42044:1,2016-01-31T12:00:00Z,26.1914,-97.0507,2.0,1.867429167,27.31450347,-99999.0,'11111222,11111222,99999999' 
TABS,ioos:station:wmo:42044:1,2016-01-31T12:30:00Z,26.1914,-97.0507,2.0,1.332896614,28.37767609,-99999.0,'11111222,11111222,99999999' 
TABS,ioos:station:wmo:42044:1,2016-01-31T13:00:00Z,26.1914,-97.0507,2.0,6.608659344,28.06648001,-99999.0,'11111222,11111222,99999999' 
TABS,ioos:station:wmo:42044:1,2016-01-31T13:30:00Z,26.1914,-97.0507,2.0,5.758457158,28.7048428,-99999.0,'11111222,11111222,99999999' 
TABS,ioos:station:wmo:42044:1,2016-01-31T14:00:00Z,26.1914,-97.0507,2.0,8.384062225,28.73710145,-99999.0,'11111222,11111222,99999999' 
TABS,ioos:station:wmo:42044:1,2016-01-31T14:30:00Z,26.1914,-97.0507,2.0,10.47991084,30.18348058,-99999.0,'11111222,11111222,99999999' 
TABS,ioos:station:wmo:42044:1,2016-01-31T15:00:00Z,26.1914,-97.0507,2.0,3.791147277,31.30850523,-99999.0,'11111222,11111222,99999999' 
TABS,ioos:station:wmo:42044:1,2016-01-31T15:30:00Z,26.1914,-97.0507,2.0,9.82017522,31.60303308,-99999.0,'11111222,11111222,99999999' 
TABS,ioos:station:wmo:42044:1,2016-01-31T16:00:00Z,26.1914,-97.0507,2.0,6.319626036,33.52370057,-99999.0,'11111222,11111222,99999999' 
TABS,ioos:station:wmo:42044:1,2016-01-31T16:30:00Z,26.1914,-97.0507,2.0,4.188626915,31.7648359,-99999.0,'11111222,11111222,99999999' 
TABS,ioos:station:wmo:42044:1,2016-01-31T17:00:00Z,26.1914,-97.0507,2.0,8.749124594,31.42565831,-99999.0,'11111222,11111222,99999999' 
TABS,ioos:station:wmo:42044:1,2016-01-31T17:30:00Z,26.1914,-97.0507,2.0,6.366672565,31.29298484,-99999.0,'11111222,11111222,99999999' 
TABS,ioos:station:wmo:42044:1,2016-01-31T18:00:00Z,26.1914,-97.0507,2.0,5.876005249,31.74679354,-99999.0,'11111222,11111222,99999999' 
TABS,ioos:station:wmo:42044:1,2016-01-31T18:30:00Z,26.1914,-97.0507,2.0,3.150625171,35.66389911,-99999.0,'11111222,11111222,99999999' 
TABS,ioos:station:wmo:42044:1,2016-01-31T19:00:00Z,26.1914,-97.0507,2.0,5.538648685,37.09316379,-99999.0,'11111222,11111222,99999999' 
TABS,ioos:station:wmo:42044:1,2016-01-31T19:30:00Z,26.1914,-97.0507,2.0,359.3589264,36.6322945,-99999.0,'11111222,11144222,99999999' 
TABS,ioos:station:wmo:42044:1,2016-01-31T20:00:00Z,26.1914,-97.0507,2.0,4.292242954,34.60705419,-99999.0,'11111222,11111222,99999999' 
TABS,ioos:station:wmo:42044:1,2016-01-31T20:30:00Z,26.1914,-97.0507,2.0,8.220808174,35.80793208,-99999.0,'11111222,11111222,99999999' 
TABS,ioos:station:wmo:42044:1,2016-01-31T21:00:00Z,26.1914,-97.0507,2.0,5.807731719,35.87412717,-99999.0,'11111222,11111222,99999999' 
TABS,ioos:station:wmo:42044:1,2016-01-31T21:30:00Z,26.1914,-97.0507,2.0,7.020673506,37.39033298,-99999.0,'11111222,11111222,99999999' 
TABS,ioos:station:wmo:42044:1,2016-01-31T22:00:00Z,26.1914,-97.0507,2.0,10.35697562,37.49082554,-99999.0,'11111222,11111222,99999999' 
TABS,ioos:station:wmo:42044:1,2016-01-31T22:30:00Z,26.1914,-97.0507,2.0,6.160397917,35.50501514,-99999.0,'11111222,11111222,99999999' 
TABS,ioos:station:wmo:42044:1,2016-01-31T23:00:00Z,26.1914,-97.0507,2.0,9.120805827,38.04095819,-99999.0,'11111222,11111222,99999999' 
TABS,ioos:station:wmo:42044:1,2016-01-31T23:30:00Z,26.1914,-97.0507,2.0,12.59796369,38.74272319,-99999.0,'11111222,11111222,99999999' 
 
DISCLAIMER: The Gulf of Mexico Coastal and Ocean Observing (GCOOS) Data Portal aggregates data from the regional data providers for the convenience of all data users. Data published on this website should not be used for navigation or certain other uses as we cannot guarantee data accuracy or availability. The data and delivery services are provided 'as is' without warranty of any kind. Data Source: Gulf of Mexico Coastal Ocean Observing System Data Portal (http://data.gcoos.org/) 
